Back to catalog

CZ-2C R/B

AliveSSO
NORAD 45722·ROCKET BODY·🇨🇳 China

Launched Jun 10, 2020 from Taiyuan Satellite Launch Center

Loading…

Next Passes (next 24 hours)

TLE

FreshSource: Space-Track

Epoch: Sep 14, 2026, 12:58 UTC

1 45722U 20036B   26257.54036122  .00000185  00000-0  62457-4 0  9998
2 45722  98.7203 285.7918 0050698  29.5153 330.8884 14.47712095330655

Track CZ-2C R/B in real time with AllMySat

Download on the App Store